Location: Newark
(44.2003°N, 3.2583°E)
Time: 03:04:46
(UTC+00:00)

Explorer 7 - Pass Details

Date: 27 October 2019
Orbit: 485 x 680 km, 50.3° (Epoch: 13 November)

Event Time Altitude Azimuth Distance (km) Brightness Sun altitude
Rises 08:52:08 0° 240° (WSW) 2,607 10.2 22.6°
Reaches altitude 10° 08:54:21 10° 240° (WSW) 1,703 9.3 22.9°
Maximum altitude 08:58:11 88° 150° (SSE) 495 7.0 23.3°
Drops below altitude 10° 09:01:57 10° 62° (ENE) 1,669 9.5 23.8°
Sets 09:04:06 0° 63° (ENE) 2,551 10.4 24.0°
